Time,TemperatureF,DewpointF,PressureIn,WindDirection,WindDirectionDegrees,WindSpeedMPH,WindSpeedGustMPH,Humidity,HourlyPrecipIn,Conditions,Clouds,dailyrainin,SolarRadiationWatts/m^2,SoftwareType,DateUTC
2016-02-06 00:00:00,24.7,21.1,30.35,NNW,336,0.0,0.0,86,0.00,,,0.08,0,Wunderground v.1.15,2016-02-06 05:00:00,
2016-02-06 00:10:00,24.6,21.0,30.34,NNW,336,0.0,0.0,86,0.00,,,0.08,0,Wunderground v.1.15,2016-02-06 05:10:00,
2016-02-06 00:15:00,24.5,21.2,30.34,NNW,336,0.0,0.0,87,0.00,,,0.08,0,Wunderground v.1.15,2016-02-06 05:15:00,
2016-02-06 00:25:00,24.3,21.0,30.34,NNW,336,0.0,0.0,87,0.00,,,0.08,0,Wunderground v.1.15,2016-02-06 05:25:00,
2016-02-06 00:30:00,24.3,21.0,30.35,NNW,336,0.0,0.0,87,0.00,,,0.08,0,Wunderground v.1.15,2016-02-06 05:30:00,
2016-02-06 00:40:00,24.2,21.2,30.35,NNW,336,0.0,0.0,88,0.00,,,0.08,0,Wunderground v.1.15,2016-02-06 05:40:00,
2016-02-06 00:50:00,24.1,21.1,30.35,NNW,336,0.0,0.0,88,0.00,,,0.08,0,Wunderground v.1.15,2016-02-06 05:50:00,
2016-02-06 01:00:00,24.1,21.1,30.34,NNW,336,0.0,1.0,88,0.00,,,0.08,0,Wunderground v.1.15,2016-02-06 06:00:00,
2016-02-06 01:10:00,23.9,20.9,30.34,NNW,336,0.0,1.0,88,0.00,,,0.08,0,Wunderground v.1.15,2016-02-06 06:10:00,
2016-02-06 01:15:00,23.8,20.8,30.34,NNW,336,0.0,1.0,88,0.00,,,0.08,0,Wunderground v.1.15,2016-02-06 06:15:00,
2016-02-06 01:25:00,23.6,20.6,30.34,NNW,336,0.0,1.0,88,0.00,,,0.08,0,Wunderground v.1.15,2016-02-06 06:25:00,
2016-02-06 01:35:00,23.5,20.5,30.34,NNW,336,0.0,1.0,88,0.00,,,0.08,0,Wunderground v.1.15,2016-02-06 06:35:00,
2016-02-06 01:45:00,23.3,20.5,30.35,NNW,336,0.0,1.0,89,0.00,,,0.08,0,Wunderground v.1.15,2016-02-06 06:45:00,
2016-02-06 01:50:00,23.1,20.3,30.35,NNW,336,0.0,1.0,89,0.00,,,0.08,0,Wunderground v.1.15,2016-02-06 06:50:00,
2016-02-06 02:00:00,22.9,20.1,30.35,NNW,336,0.0,1.0,89,0.00,,,0.08,0,Wunderground v.1.15,2016-02-06 07:00:00,
2016-02-06 02:10:00,22.8,20.0,30.35,NNW,336,0.0,1.0,89,0.00,,,0.08,0,Wunderground v.1.15,2016-02-06 07:10:00,
2016-02-06 02:30:00,22.4,19.6,30.35,NNW,336,0.0,1.0,89,0.00,,,0.08,0,Wunderground v.1.15,2016-02-06 07:30:00,
2016-02-06 02:35:00,22.3,19.6,30.35,NNW,336,0.0,1.0,89,0.00,,,0.08,0,Wunderground v.1.15,2016-02-06 07:35:00,
2016-02-06 02:55:00,21.8,19.1,30.36,NNW,336,0.0,1.0,89,0.00,,,0.08,0,Wunderground v.1.15,2016-02-06 07:55:00,
2016-02-06 03:00:00,21.6,18.9,30.35,NNW,336,0.0,0.0,89,0.00,,,0.08,0,Wunderground v.1.15,2016-02-06 08:00:00,
2016-02-06 03:05:00,21.5,18.8,30.35,NNW,336,0.0,0.0,89,0.00,,,0.08,0,Wunderground v.1.15,2016-02-06 08:05:00,
2016-02-06 03:15:00,21.3,18.6,30.35,NNW,336,0.0,0.0,89,0.00,,,0.08,0,Wunderground v.1.15,2016-02-06 08:15:00,
2016-02-06 03:20:00,21.3,18.6,30.35,NNW,336,0.0,0.0,89,0.00,,,0.08,0,Wunderground v.1.15,2016-02-06 08:20:00,